Total_Precipitation_Accumulation
1.36 1.63 1.28 1.85 1.52 1.32 1.20 1.45 1.20 0.63 0.68 0.70 0.48 0.39 0.13 0.18 0.22 0.21 0.13 0.38 0.30 0.29 0.11 0.14 0.16 0.18 0.21 0.16 0.24 0.20 0.15 0.16 0.36 0.43 0.33 0.27 0.33 0.20 0.35 0.27 0.20 0.24
1.32 1.98 1.94 1.86 1.54 1.37 1.29 1.11 1.13 0.96 0.68 0.57 0.32 0.32 0.20 0.09 0.07 0.07 0.14 0.11 0.13 0.10 0.18 0.24 0.38 0.29 0.25 0.20 0.33 0.25 0.21 0.31 0.33 0.42 0.34 0.33 0.29 0.50 0.30 0.27 0.48 0.15
1.57 1.43 1.91 1.99 2.00 1.77 1.32 1.62 1.29 1.01 0.70 0.43 0.48 0.47 0.35 0.15 0.10 0.07 0.11 0.12 0.10 0.12 0.18 0.17 0.23 0.15 0.11 0.25 0.26 0.33 0.20 0.28 0.33 0.30 0.21 0.24 0.40 0.38 0.43 0.41 0.36 0.33
1.58 1.72 1.75 2.20 2.00 1.61 1.81 1.47 1.18 0.79 0.72 0.91 0.45 0.36 0.17 0.25 0.19 0.12 0.24 0.11 0.19 0.20 0.17 0.32 0.34 0.21 0.12 0.12 0.29 0.29 0.25 0.28 0.34 0.26 0.26 0.43 0.39 0.24 0.26 0.33 0.16 0.25
1.51 1.48 1.26 1.51 1.57 1.80 1.55 1.18 0.90 0.70 0.62 0.58 0.42 0.31 0.23 0.22 0.24 0.32 0.29 0.16 0.26 0.58 0.51 0.25 0.22 0.24 0.21 0.14 0.26 0.41 0.40 0.40 0.36 0.30 0.30 0.26 0.27 0.17 0.18 0.20 0.33 0.35
1.37 1.52 1.40 1.45 1.58 1.58 1.41 0.93 0.83 1.00 0.60 0.56 0.37 0.32 0.27 0.27 0.39 0.70 1.29 0.76 0.82 0.59 0.54 0.31 0.38 0.39 0.64 0.26 0.25 0.27 0.40 0.36 0.46 0.48 0.33 0.30 0.30 0.23 0.21 0.20 0.20 0.27
1.36 1.65 1.49 1.24 1.41 1.23 1.32 0.96 1.11 0.79 0.62 0.59 1.20 0.42 0.54 0.73 0.60 0.87 0.89 0.92 0.55 0.44 0.45 0.38 0.80 0.44 0.44 0.41 0.47 0.54 0.28 0.20 0.30 0.62 0.51 0.34 0.31 0.35 0.25 0.18 0.17 0.27
1.33 1.61 1.98 1.93 1.76 1.63 1.21 1.04 0.91 0.89 0.78 0.80 0.65 0.94 1.12 0.70 0.43 0.26 0.40 0.47 0.55 0.48 0.54 1.05 0.95 0.72 0.85 0.59 0.70 0.40 0.34 0.22 0.36 0.42 0.43 0.20 0.25 0.29 0.26 0.19 0.13 0.10
3.52 2.60 2.15 2.31 1.96 1.33 1.01 1.07 1.00 1.15 0.80 0.83 1.08 0.98 0.90 0.51 0.47 0.48 0.25 0.40 0.62 1.29 0.75 0.51 0.66 0.90 0.55 0.95 0.59 0.53 0.46 0.33 0.49 0.49 0.50 0.23 0.25 0.44 0.27 0.29 0.28 0.27
2.23 2.07 2.34 3.26 2.37 1.82 1.53 1.65 1.27 1.44 1.17 1.13 1.49 1.00 0.50 0.28 0.43 0.53 0.64 1.11 1.18 0.77 0.60 0.77 1.18 0.92 1.01 0.85 0.60 0.51 0.54 0.29 0.60 0.62 0.36 0.34 0.19 0.29 0.58 0.83 0.50 0.42
3.04 3.15 3.35 2.95 1.84 1.60 1.47 1.89 1.43 1.69 1.40 0.97 0.78 0.85 1.68 1.15 1.09 1.30 1.37 0.87 0.58 0.55 0.97 0.73 0.66 0.84 0.63 1.14 1.02 0.48 0.51 0.91 1.00 0.69 0.50 0.26 0.39 0.35 0.46 0.82 0.59 0.50
2.60 2.48 2.19 1.88 1.61 1.34 1.37 1.71 1.63 1.90 1.46 1.33 1.10 1.15 1.30 1.22 1.73 1.69 1.57 1.28 0.90 1.14 1.23 1.17 1.21 1.17 1.04 1.38 1.05 1.39 1.05 1.12 0.79 0.72 0.40 0.57 0.40 0.98 1.09 1.76 1.37 0.71
3.21 2.68 2.81 2.08 1.53 2.05 2.15 2.44 1.78 1.75 1.85 1.68 1.73 1.56 1.45 1.47 1.86 1.55 1.35 1.26 1.24 1.09 1.16 1.07 1.17 1.41 1.97 2.61 2.12 1.57 2.07 1.10 0.86 0.67 0.63 0.71 0.72 1.18 1.10 1.98 1.85 1.46
2.41 2.75 3.54 2.79 2.68 3.73 2.76 2.15 2.76 2.03 2.23 2.28 2.86 2.57 1.75 1.45 1.38 1.19 1.14 1.27 1.38 1.88 1.68 1.66 2.21 1.81 1.72 2.24 2.07 1.80 1.38 1.22 0.85 0.64 1.34 1.19 0.71 0.91 1.04 1.22 1.88 1.70
4.00 3.97 3.40 3.68 3.06 3.75 3.59 2.65 2.89 3.69 3.01 3.43 2.31 2.31 2.70 2.01 1.91 1.49 1.33 1.07 0.87 0.96 1.42 1.15 1.68 1.40 1.36 1.99 1.60 1.51 2.03 1.55 0.93 1.22 1.06 1.01 1.19 0.70 0.74 1.48 2.19 1.64
3.80 3.67 3.92 4.23 3.76 4.25 4.78 3.35 3.15 3.96 4.28 3.25 2.31 2.27 2.03 2.02 1.72 1.54 1.52 1.18 1.52 1.69 1.28 1.51 1.43 1.57 1.03 1.32 1.06 1.43 1.72 1.58 1.38 0.89 1.09 1.05 1.00 1.18 0.93 1.22 1.35 1.54
4.81 4.14 3.63 4.18 3.92 3.84 4.57 3.94 3.25 2.94 2.84 2.73 1.91 1.49 1.57 1.56 1.78 1.64 1.29 2.19 1.55 1.88 2.10 2.03 1.67 1.45 0.93 1.25 1.13 1.17 1.87 2.02 1.47 1.21 1.40 1.52 1.04 0.84 1.84 1.68 1.28 1.55
3.47 4.38 3.77 3.21 3.64 4.87 4.37 3.56 3.23 2.44 2.38 2.47 1.61 1.65 1.43 1.36 1.37 1.19 0.96 1.31 1.38 2.06 1.93 1.67 1.59 1.44 1.41 1.55 1.12 0.99 0.88 1.42 1.29 1.06 1.57 1.76 1.28 1.02 1.05 1.25 1.62 1.45
4.16 4.87 4.00 3.33 4.08 4.93 4.63 4.41 2.93 2.82 2.57 2.46 1.65 1.81 1.86 1.32 1.21 1.46 1.28 1.20 1.33 1.69 1.38 1.01 1.15 2.21 1.47 0.91 0.62 0.67 0.47 0.70 1.39 1.64 1.28 1.13 1.34 1.41 1.44 1.22 1.78 1.89
3.85 3.65 3.42 3.63 4.01 5.06 4.62 2.87 3.02 2.06 2.36 3.54 2.34 1.83 1.65 1.39 1.49 1.52 1.11 1.25 0.97 1.08 1.26 1.67 1.65 1.56 0.68 0.38 0.28 0.27 0.27 0.45 1.12 1.58 1.66 1.13 1.37 2.20 2.53 2.21 2.80 2.24
4.25 4.19 4.11 4.38 4.92 4.51 3.51 4.23 3.00 3.35 3.87 4.39 3.98 3.79 2.69 2.04 1.69 1.39 1.49 1.31 1.39 1.66 1.62 1.44 1.86 1.20 0.48 0.24 0.19 0.20 0.21 0.28 0.54 1.36 1.53 1.13 1.36 1.40 1.68 2.30 2.60 3.07
3.53 3.82 4.60 5.72 5.73 5.26 4.25 4.09 4.12 4.17 4.68 4.67 3.78 3.22 2.76 1.99 1.92 1.56 1.55 1.82 1.86 1.48 1.30 1.37 1.30 0.96 0.32 0.27 0.24 0.22 0.23 0.44 0.81 1.06 1.00 0.91 1.43 2.26 2.08 2.70 2.73 2.78
3.59 4.69 4.30 4.21 4.20 4.88 4.75 4.88 5.34 5.59 4.90 4.79 3.60 3.08 2.65 1.89 2.50 2.04 1.49 2.31 1.92 1.59 1.50 1.73 1.45 1.05 0.52 0.60 0.54 0.74 1.32 0.72 0.64 1.04 1.19 1.34 1.58 1.82 1.81 2.83 2.81 2.25
4.74 4.71 5.29 5.40 4.57 4.62 4.48 5.28 5.61 5.41 5.32 5.34 4.68 4.56 5.34 5.15 3.87 3.10 4.14 3.92 3.06 1.78 1.47 1.72 1.47 1.41 1.34 1.27 1.67 0.99 1.23 0.67 1.11 1.77 1.78 2.05 2.11 2.55 2.35 2.20 1.99 2.45
4.06 4.65 4.89 5.52 5.45 4.81 5.50 6.03 5.30 4.99 4.50 4.55 5.47 4.74 5.61 6.14 4.67 4.42 6.06 5.02 4.17 3.21 1.70 1.68 1.21 1.38 1.15 1.22 1.93 1.66 1.52 1.67 1.70 2.09 2.44 2.81 2.52 3.30 3.73 2.06 2.95 2.55
3.99 4.70 3.95 4.84 4.59 5.11 6.49 6.05 6.49 6.79 6.01 4.83 5.28 6.56 6.72 4.78 5.27 6.25 5.87 4.44 3.30 2.74 2.76 2.33 2.14 1.93 2.42 1.33 1.55 1.91 1.41 3.27 4.05 2.64 2.23 2.71 3.21 2.83 2.78 2.28 2.82 2.16